Tracking 25710 objects as of 5-Jul-2022
HD Live streaming from Space Station
objects crossing your sky now

FENGYUN 1C DEB

Track FENGYUN 1C DEB now!
10-day predictions


NORAD ID: 30633
Int'l Code: 1999-025ANQ
Perigee: 807.3 km
Apogee: 1,008.0 km
Inclination: 98.5 °
Period: 103.0 minutes
Semi major axis: 7278 km
RCS: 0.025 m2 (small)
Launch date: May 10, 1999
Source: People's Republic of China (PRC)
Launch site: Taiyaun Space Center, China (TSC)

Note: This is SATELLITE DEBRIS
aabbcc
Your satellite tracking list
Your tracking list is empty




NASA's NSSDC Master Catalog

Two Line Element Set (TLE):
1 30633U 99025ANQ 22185.78976681  .00000500  00000-0  34963-3 0  9993
2 30633  98.4606 126.3426 0137873 195.8992 192.9629 13.98072759784420
Source of the keplerian elements: AFSPC